Tracking 30922 objects as of 2-Jul-2025
HD Live streaming from Space Station
objects crossing your sky now

SSC

Track SSC now!
10-day predictions
SSC is classified as:


NORAD ID: 13874
Int'l Code: 1983-008H
Perigee: 430.1 km
Apogee: 1,525.0 km
Inclination: 63.3 °
Period: 104.5 minutes
Semi major axis: 7348 km
RCS: Unknown
Launch date: February 9, 1983
Source: United States (US)
Launch site: AIR FORCE WESTERN TEST RANGE (AFWTR)
Your satellite tracking list
Your tracking list is empty




NASA's NSSDC Master Catalog

Two Line Element Set (TLE):
1 13874U 83008H   25182.57193871  .00003268  00000-0  37286-3 0  9999
2 13874  63.3018 250.5678 0744992 130.2249 236.6457 13.78171812303272
Source of the keplerian elements: McCants